W4KAB Weather Reports


time (UTC)temp
C
wind
direction
speed
KPH
gust
KPH
rain 1hr
cm
rain 24hr
cm
rain mn
cm
humidity
%
barometer
mb
20260505160440 23 291 0.0 0.0 0.00 0.00 0.00 45 1017.9
20260505152916 22 242 0.0 1.6 0.00 0.00 0.00 47 1017.6
20260505152408 22 262 3.2 3.2 0.00 0.00 0.00 45 1017.8
20260505151908 22 279 0.0 0.0 0.00 0.00 0.00 45 1017.7
20260505151404 22 289 0.0 0.0 0.00 0.00 0.00 48 1017.7
20260505150901 21 273 1.6 3.2 0.00 0.00 0.00 45 1017.9
20260505150358 21 280 3.2 3.2 0.00 0.00 0.00 48 1017.7
20260505140323 17 280 0.0 0.0 0.00 0.00 0.00 65 1017.7
20260505130246 13 258 0.0 0.0 0.00 0.00 0.00 75 1017.9
20260505124737 12 298 0.0 0.0 0.00 0.00 0.00 82 1017.7
20260505124234 12 295 0.0 0.0 0.00 0.00 0.00 82 1017.6
20260505123729 12 297 0.0 0.0 0.00 0.00 0.00 83 1017.7
20260505123226 12 284 0.0 0.0 0.00 0.00 0.00 84 1017.6
20260505122722 11 280 0.0 0.0 0.00 0.00 0.00 84 1017.6
20260505122220 11 280 0.0 0.0 0.00 0.00 0.00 85 1017.6
20260505121716 11 279 0.0 0.0 0.00 0.00 0.00 86 1017.7
20260505121213 10 280 0.0 0.0 0.00 0.00 0.00 86 1017.6
20260505120710 10 271 0.0 0.0 0.00 0.00 0.00 86 1017.5
20260505120205 10 261 0.0 0.0 0.00 0.00 0.00 87 1017.3
20260505115659 10 262 0.0 0.0 0.00 0.00 0.00 87 1017.2
20260505115157 10 258 0.0 0.0 0.00 0.00 0.00 87 1017.4
20260505114654 10 261 0.0 0.0 0.00 0.00 0.00 87 1017.2
20260505114150 10 295 0.0 0.0 0.00 0.00 0.00 88 1017.4
20260505113647 9 297 0.0 0.0 0.00 0.00 0.00 88 1017.5
20260505113143 9 308 0.0 0.0 0.00 0.00 0.00 89 1017.3
20260505112640 9 312 0.0 0.0 0.00 0.00 0.00 89 1017.3
20260505112138 9 294 0.0 0.0 0.00 0.00 0.00 88 1017.3
20260505111637 8 297 0.0 0.0 0.00 0.00 0.00 88 1017.3
20260505111133 9 294 0.0 0.0 0.00 0.00 0.00 87 1017.5
20260505110630 9 294 0.0 0.0 0.00 0.00 0.00 87 1017.2
20260505110127 9 321 0.0 0.0 0.00 0.00 0.00 86 1017.1
20260505102103 10 291 0.0 0.0 0.00 0.00 0.00 83 1016.9
20260505101601 10 66 0.0 0.0 0.00 0.00 0.00 83 1016.9
20260505101057 10 25 0.0 0.0 0.00 0.00 0.00 82 1016.8
20260505100554 10 31 0.0 0.0 0.00 0.00 0.00 81 1016.9
20260505100051 10 274 0.0 0.0 0.00 0.00 0.00 82 1016.7
20260505095547 10 269 0.0 0.0 0.00 0.00 0.00 82 1016.8
20260505095043 10 300 0.0 0.0 0.00 0.00 0.00 81 1016.4
20260505094540 11 291 0.0 0.0 0.00 0.00 0.00 80 1016.6
20260505094036 11 314 0.0 0.0 0.00 0.00 0.00 76 1016.4
20260505093533 11 274 0.0 0.0 0.00 0.00 0.00 75 1016.6
20260505093030 11 265 0.0 0.0 0.00 0.00 0.00 76 1016.2
20260505092527 11 266 0.0 0.0 0.00 0.00 0.00 76 1016.7
20260505092026 11 271 0.0 0.0 0.00 0.00 0.00 76 1016.4
20260505091522 11 265 0.0 0.0 0.00 0.00 0.00 76 1016.6
20260505091021 11 260 0.0 0.0 0.00 0.00 0.00 75 1016.7
20260505090518 11 261 0.0 0.0 0.00 0.00 0.00 75 1016.6
20260505090016 11 274 0.0 0.0 0.00 0.00 0.00 76 1016.6
20260505085514 11 272 0.0 0.0 0.00 0.00 0.00 76 1016.6
20260505085012 11 271 0.0 0.0 0.00 0.00 0.00 77 1016.3
20260505084510 11 274 0.0 0.0 0.00 0.00 0.00 77 1016.6
20260505084007 11 284 0.0 0.0 0.00 0.00 0.00 78 1016.1
20260505083504 11 273 0.0 0.0 0.00 0.00 0.00 78 1016.3
20260505083000 11 287 0.0 0.0 0.00 0.00 0.00 78 1016.2
20260505082456 11 286 0.0 0.0 0.00 0.00 0.00 76 1016.1
20260505081953 12 309 0.0 0.0 0.00 0.00 0.00 76 1016.3
20260505081450 12 345 0.0 0.0 0.00 0.00 0.00 74 1015.9
20260505080947 12 259 0.0 0.0 0.00 0.00 0.00 75 1016.0
20260505080443 12 250 0.0 0.0 0.00 0.00 0.00 73 1016.2
20260505075938 11 264 0.0 0.0 0.00 0.00 0.00 75 1016.2
20260505075435 11 279 0.0 0.0 0.00 0.00 0.00 75 1015.9
20260505074933 11 322 0.0 0.0 0.00 0.00 0.00 75 1016.1
20260505074430 11 65 0.0 0.0 0.00 0.00 0.00 74 1016.0
20260505073927 12 81 0.0 0.0 0.00 0.00 0.00 74 1015.7
20260505073425 12 70 0.0 0.0 0.00 0.00 0.00 73 1015.6
20260505072921 12 80 0.0 0.0 0.00 0.00 0.00 72 1015.7
20260505072418 12 88 0.0 0.0 0.00 0.00 0.00 72 1015.4
20260505071914 12 281 0.0 0.0 0.00 0.00 0.00 71 1015.7
20260505071410 12 315 0.0 0.0 0.00 0.00 0.00 71 1015.7
20260505070909 12 317 0.0 0.0 0.00 0.00 0.00 70 1015.8
20260505070404 12 277 0.0 0.0 0.00 0.00 0.00 71 1015.7
20260505065900 12 277 0.0 0.0 0.00 0.00 0.00 71 1015.5
20260505065357 12 277 0.0 0.0 0.00 0.00 0.00 70 1015.5
20260505064854 13 321 0.0 0.0 0.00 0.00 0.00 70 1015.7
20260505064351 13 36 0.0 0.0 0.00 0.00 0.00 67 1015.6
20260505063850 13 27 0.0 0.0 0.00 0.00 0.00 67 1015.7
20260505063345 13 224 0.0 0.0 0.00 0.00 0.00 68 1015.6
20260505062842 13 73 0.0 0.0 0.00 0.00 0.00 68 1015.8
20260505062339 13 141 0.0 0.0 0.00 0.00 0.00 67 1015.6
20260505061836 13 79 0.0 0.0 0.00 0.00 0.00 66 1015.4
20260505061334 13 251 0.0 0.0 0.00 0.00 0.00 66 1015.7
20260505060831 13 94 0.0 0.0 0.00 0.00 0.00 65 1015.6
20260505060328 13 328 0.0 0.0 0.00 0.00 0.00 64 1015.7
20260505055824 14 82 0.0 0.0 0.00 0.00 0.00 64 1015.7
20260505055320 14 160 0.0 0.0 0.00 0.00 0.00 65 1015.7
20260505054818 14 74 0.0 0.0 0.00 0.00 0.00 64 1015.6
20260505054315 14 54 0.0 0.0 0.00 0.00 0.00 64 1015.7
20260505053813 15 65 0.0 0.0 0.00 0.00 0.00 62 1015.8
20260505053310 15 315 0.0 0.0 0.00 0.00 0.00 62 1015.6
20260505052806 15 278 0.0 0.0 0.00 0.00 0.00 63 1015.7
20260505052304 15 246 0.0 0.0 0.00 0.00 0.00 62 1015.7
20260505051800 15 317 0.0 0.0 0.00 0.00 0.00 61 1015.3
20260505051258 15 57 0.0 0.0 0.00 0.00 0.00 60 1015.7
20260505050756 16 61 0.0 0.0 0.00 0.00 0.00 58 1015.6
20260505050254 16 301 0.0 0.0 0.00 0.00 0.00 59 1015.4
20260505041729 19 299 0.0 0.0 0.00 0.00 0.00 45 1015.4
20260505041226 19 260 0.0 0.0 0.00 0.00 0.00 45 1015.6
20260505040723 20 308 0.0 0.0 0.00 0.00 0.00 45 1015.6
20260505040220 19 250 0.0 0.0 0.00 0.00 0.00 45 1015.6
20260505035718 20 260 0.0 0.0 0.00 0.00 0.00 45 1015.5
20260505035213 20 279 1.6 3.2 0.00 0.00 0.00 45 1015.7
20260505034710 20 264 0.0 0.0 0.00 0.00 0.00 45 1015.7
20260505034207 19 281 0.0 0.0 0.00 0.00 0.00 47 1015.6
20260505033703 19 248 0.0 0.0 0.00 0.00 0.00 46 1015.5
20260505033202 19 248 0.0 0.0 0.00 0.00 0.00 45 1015.7
20260505032659 19 262 0.0 0.0 0.00 0.00 0.00 46 1015.7
20260505032155 19 236 0.0 0.0 0.00 0.00 0.00 47 1016.1
20260505031653 20 299 0.0 1.6 0.00 0.00 0.00 45 1015.9
20260505031149 20 253 0.0 0.0 0.00 0.00 0.00 45 1015.9
20260505030646 20 248 0.0 0.0 0.00 0.00 0.00 45 1015.8
20260505030141 20 264 0.0 0.0 0.00 0.00 0.00 45 1016.1
20260505025638 20 257 0.0 0.0 0.00 0.00 0.00 45 1016.0
20260505025136 19 244 0.0 0.0 0.00 0.00 0.00 46 1016.0
20260505024634 19 242 0.0 0.0 0.00 0.00 0.00 46 1016.2
20260505024131 19 278 0.0 0.0 0.00 0.00 0.00 46 1016.1
20260505023628 19 246 0.0 0.0 0.00 0.00 0.00 46 1016.0
20260505023125 19 266 0.0 0.0 0.00 0.00 0.00 45 1016.0
20260505022623 19 214 1.6 1.6 0.00 0.00 0.00 44 1015.8
20260505022120 19 248 0.0 1.6 0.00 0.00 0.00 44 1015.9
20260505021616 19 252 0.0 0.0 0.00 0.00 0.00 46 1015.8
20260505021113 19 264 0.0 0.0 0.00 0.00 0.00 46 1015.8
20260505020608 19 256 0.0 0.0 0.00 0.00 0.00 46 1016.0
20260505020105 18 247 0.0 0.0 0.00 0.00 0.00 46 1015.8
20260505015602 18 268 0.0 0.0 0.00 0.00 0.00 46 1016.0
20260505015059 18 258 0.0 0.0 0.00 0.00 0.00 48 1016.0
20260505014555 18 301 0.0 0.0 0.00 0.00 0.00 47 1015.8
20260505014052 18 84 0.0 0.0 0.00 0.00 0.00 49 1015.7
20260505013550 17 255 0.0 0.0 0.00 0.00 0.00 51 1015.7
20260505013047 17 31 0.0 0.0 0.00 0.00 0.00 51 1015.6
20260505012545 17 234 0.0 0.0 0.00 0.00 0.00 52 1015.6
20260505012042 18 215 0.0 0.0 0.00 0.00 0.00 50 1015.6
20260505011537 18 152 0.0 0.0 0.00 0.00 0.00 51 1015.4
20260505011035 18 151 0.0 0.0 0.00 0.00 0.00 50 1015.6
20260505010530 18 138 0.0 0.0 0.00 0.00 0.00 50 1015.5
20260505010027 18 248 0.0 0.0 0.00 0.00 0.00 49 1015.5
20260505005523 19 229 0.0 0.0 0.00 0.00 0.00 48 1015.5
20260505005021 20 249 0.0 0.0 0.00 0.00 0.00 46 1015.4
20260505004517 20 252 0.0 0.0 0.00 0.00 0.00 43 1015.5
20260505004014 20 257 0.0 0.0 0.00 0.00 0.00 42 1015.4
20260505003511 20 278 0.0 0.0 0.00 0.00 0.00 43 1015.3
20260505003009 20 253 0.0 0.0 0.00 0.00 0.00 43 1015.2
20260505002504 20 264 0.0 1.6 0.00 0.00 0.00 44 1015.3
20260505002003 20 268 0.0 0.0 0.00 0.00 0.00 43 1015.0
20260505001500 21 265 0.0 0.0 0.00 0.00 0.00 46 1015.2
20260505000956 21 265 0.0 0.0 0.00 0.00 0.00 47 1015.1
20260505000454 21 262 0.0 0.0 0.00 0.00 0.00 45 1015.1
20260504235951 21 292 0.0 0.0 0.00 0.00 0.00 45 1015.0
20260504235448 21 291 0.0 0.0 0.00 0.00 0.00 45 1014.9
20260504234944 22 297 0.0 0.0 0.00 0.00 0.00 40 1015.0
20260504234442 22 259 0.0 0.0 0.00 0.00 0.00 41 1014.7
20260504233938 22 256 0.0 0.0 0.00 0.00 0.00 40 1014.8
20260504233434 22 255 0.0 0.0 0.00 0.00 0.00 39 1014.8
20260504232931 23 274 0.0 0.0 0.00 0.00 0.00 41 1014.8
20260504232428 23 261 0.0 0.0 0.00 0.00 0.00 38 1014.8
20260504231925 23 327 0.0 0.0 0.00 0.00 0.00 38 1014.6
20260504231422 23 1 0.0 0.0 0.00 0.00 0.00 38 1014.6
20260504230918 23 249 1.6 1.6 0.00 0.00 0.00 38 1014.4
20260504230415 23 253 1.6 1.6 0.00 0.00 0.00 38 1014.6
20260504225914 23 263 0.0 1.6 0.00 0.00 0.00 39 1014.6
20260504225410 23 354 0.0 1.6 0.00 0.00 0.00 37 1014.4
20260504224908 23 249 3.2 4.8 0.00 0.00 0.00 38 1014.4
20260504224404 23 277 0.0 0.0 0.00 0.00 0.00 37 1014.3
20260504223902 24 262 1.6 1.6 0.00 0.00 0.00 37 1014.6
20260504223356 24 255 1.6 1.6 0.00 0.00 0.00 38 1014.5
20260504222853 24 242 0.0 0.0 0.00 0.00 0.00 38 1014.6
20260504222350 24 314 0.0 0.0 0.00 0.00 0.00 38 1014.6
20260504221849 24 270 0.0 0.0 0.00 0.00 0.00 38 1014.5
20260504221345 25 14 1.6 1.6 0.00 0.00 0.00 38 1014.5
20260504220842 25 262 0.0 0.0 0.00 0.00 0.00 38 1014.5
20260504220339 25 270 0.0 0.0 0.00 0.00 0.00 37 1014.5
20260504215836 25 275 0.0 0.0 0.00 0.00 0.00 38 1014.6
20260504215332 25 297 0.0 0.0 0.00 0.00 0.00 37 1014.6
20260504214828 25 239 1.6 3.2 0.00 0.00 0.00 39 1014.7
20260504214326 25 260 0.0 0.0 0.00 0.00 0.00 39 1014.4
20260504213822 25 281 0.0 1.6 0.00 0.00 0.00 38 1014.6
20260504213318 25 262 0.0 0.0 0.00 0.00 0.00 37 1014.9
20260504212816 25 244 3.2 8.0 0.00 0.00 0.00 37 1014.5
20260504212311 25 241 0.0 0.0 0.00 0.00 0.00 39 1014.6
20260504211810 25 260 1.6 1.6 0.00 0.00 0.00 38 1014.7
20260504211305 26 260 1.6 3.2 0.00 0.00 0.00 37 1014.8
20260504210803 25 256 0.0 0.0 0.00 0.00 0.00 39 1014.5
20260504210300 25 58 0.0 0.0 0.00 0.00 0.00 38 1014.5
20260504205757 25 254 0.0 0.0 0.00 0.00 0.00 38 1014.5
20260504205255 25 267 0.0 0.0 0.00 0.00 0.00 37 1014.9
20260504204753 25 250 1.6 1.6 0.00 0.00 0.00 37 1014.8
20260504204251 25 299 0.0 0.0 0.00 0.00 0.00 36 1014.7
20260504203750 26 279 0.0 0.0 0.00 0.00 0.00 35 1014.5
20260504203246 26 250 3.2 3.2 0.00 0.00 0.00 36 1014.7
20260504202741 26 296 0.0 3.2 0.00 0.00 0.00 36 1014.9
20260504202239 26 255 0.0 1.6 0.00 0.00 0.00 35 1014.8
20260504201736 26 304 0.0 0.0 0.00 0.00 0.00 36 1014.9
20260504201233 26 302 0.0 0.0 0.00 0.00 0.00 38 1015.0
20260504200731 26 79 4.8 4.8 0.00 0.00 0.00 35 1015.1
20260504200226 26 266 0.0 0.0 0.00 0.00 0.00 36 1014.9
20260504195723 26 247 0.0 0.0 0.00 0.00 0.00 38 1015.3
20260504195219 26 296 0.0 0.0 0.00 0.00 0.00 36 1015.4
20260504194716 26 246 1.6 3.2 0.00 0.00 0.00 36 1015.5
20260504194212 26 239 1.6 3.2 0.00 0.00 0.00 36 1015.1
20260504193709 26 260 1.6 3.2 0.00 0.00 0.00 38 1015.5
20260504193206 26 289 0.0 0.0 0.00 0.00 0.00 37 1015.7
20260504192704 26 355 0.0 0.0 0.00 0.00 0.00 36 1015.8
20260504192202 26 270 1.6 1.6 0.00 0.00 0.00 38 1015.8
20260504191701 26 259 1.6 3.2 0.00 0.00 0.00 36 1015.8
20260504191156 26 256 1.6 3.2 0.00 0.00 0.00 37 1015.9
20260504190652 25 204 0.0 0.0 0.00 0.00 0.00 36 1015.9
20260504190149 25 37 1.6 1.6 0.00 0.00 0.00 38 1016.0
20260504185645 26 277 3.2 4.8 0.00 0.00 0.00 41 1016.0
20260504185142 26 271 0.0 0.0 0.00 0.00 0.00 40 1016.3
20260504184638 25 48 1.6 4.8 0.00 0.00 0.00 39 1016.0
20260504184133 26 242 1.6 3.2 0.00 0.00 0.00 41 1016.0
20260504183631 25 217 0.0 0.0 0.00 0.00 0.00 36 1016.1
20260504183128 25 242 0.0 1.6 0.00 0.00 0.00 37 1016.3
20260504182626 25 246 1.6 3.2 0.00 0.00 0.00 39 1016.7
20260504182123 25 224 1.6 1.6 0.00 0.00 0.00 39 1016.3
20260504181620 25 275 0.0 0.0 0.00 0.00 0.00 39 1016.6
20260504181118 25 306 1.6 1.6 0.00 0.00 0.00 38 1016.7
20260504180617 25 258 0.0 0.0 0.00 0.00 0.00 40 1016.8
20260504180115 24 281 0.0 0.0 0.00 0.00 0.00 40 1016.9
20260504175612 23 271 0.0 0.0 0.00 0.00 0.00 41 1016.8
20260504175109 24 223 0.0 0.0 0.00 0.00 0.00 40 1016.8
20260504174607 24 260 0.0 0.0 0.00 0.00 0.00 41 1016.9
20260504174103 23 297 0.0 0.0 0.00 0.00 0.00 41 1017.0
20260504173600 23 237 0.0 0.0 0.00 0.00 0.00 42 1017.2
20260504173058 23 238 0.0 1.6 0.00 0.00 0.00 42 1017.1
20260504172554 24 4 1.6 1.6 0.00 0.00 0.00 42 1017.2
20260504172050 24 231 0.0 0.0 0.00 0.00 0.00 42 1016.9
20260504171547 23 335 1.6 3.2 0.00 0.00 0.00 41 1016.9
20260504171044 23 270 0.0 0.0 0.00 0.00 0.00 41 1016.9
20260504170540 23 265 0.0 0.0 0.00 0.00 0.00 43 1017.3